[[{"header":{"parameterUnit":"m.s-1","parameterCategory":1,"la1":30.2991,"la2":30.254,"lo1":-89.0895,"lo2":-89.0444,"dy":0.0017,"dx":0.0017,"nx":28,"ny":28,"refTime":"2024-04-21T21:00:00:Z","depth":0,"parameterNumber":2,"parameterNumberName":"U-component_of_WINDS"},"data":[0,0,0,0,0,0,0,0,0,0,0,0,0,0,0,0,0,0,0,0,0,0,0,0,0,0,0,0,0,0,0,0,0,0,0,0,0,0,0,0,0,0,0,0,0,0,0,0,0,0,0,0,0,0,0,0,0,0,-3.8126,-3.8127,0,-3.8171,-3.8172,-3.8172,-3.8064,-3.8061,-3.8057,-3.8054,-3.81,-3.8104,-3.8109,0,0,0,0,0,0,0,0,0,0,0,0,0,-3.7946,-3.795,-3.8126,-3.8127,-3.8127,-3.8171,-3.8172,-3.8172,-3.8065,-3.8061,-3.8057,-3.8053,-3.8099,-3.8104,-3.8109,0,0,0,0,0,0,0,0,0,0,0,0,0,-3.8011,-3.7951,-3.8126,-3.8079,-3.8075,-3.8171,-3.8172,-3.8172,-3.8066,-3.8061,-3.8056,-3.8051,-3.8097,-3.8103,-3.811,-3.8253,0,0,-3.813,-3.8133,0,0,0,0,0,0,0,0,-3.8007,-3.8018,-3.8085,-3.8082,-3.8078,-3.8107,-3.8125,-3.8199,-3.8067,-3.8069,-3.8054,-3.8048,-3.8107,-3.8112,-3.8132,-3.8255,-3.8257,-3.8131,-3.8135,-3.8138,-3.8139,0,0,0,0,0,0,0,-3.8003,-3.8015,-3.8144,-3.8086,-3.8082,-3.8055,-3.8059,-3.8138,-3.8116,-3.8069,-3.8061,-3.8068,-3.8104,-3.8126,-3.8132,-3.8258,-3.813,-3.8136,-3.814,-3.8143,-3.8499,-3.8504,0,0,0,0,0,0,-3.8005,-3.8012,-3.8142,-3.8145,-3.8029,-3.8063,-3.8066,-3.8103,-3.8115,-3.8112,-3.8072,-3.8063,-3.8117,-3.8124,-3.8133,-3.8299,-3.8137,-3.8144,-3.8147,-3.8493,-3.85,-3.8506,0,0,0,0,0,0,-3.8001,-3.8017,-3.814,-3.8076,-3.809,-3.8071,-3.8113,-3.8106,-3.8128,-3.8118,-3.8113,-3.8099,-3.8113,-3.8124,-3.8223,-3.8299,-3.8147,-3.8153,-3.8487,-3.8495,-3.8503,-3.8634,0,0,0,0,0,0,-3.7996,-3.8017,-3.8071,-3.8079,-3.8094,-3.8231,-3.8117,-3.8111,-3.814,-3.8128,-3.8141,-3.8139,-3.811,-3.8214,-3.823,-3.8306,-3.8158,-3.848,-3.8491,-3.85,-3.8623,-3.8646,-3.8666,0,0,0,0,0,-3.799,-3.8107,-3.8075,-3.8091,-3.8162,-3.8236,-3.8244,-3.8209,-3.8147,-3.8201,-3.8194,-3.8138,-3.8289,-3.8225,-3.8242,-3.8321,-3.8475,-3.8487,-3.8499,-3.8614,-3.8642,-3.8665,0,0,0,0,0,0,-3.8109,-3.8107,-3.8071,-3.8194,-3.8216,-3.8217,-3.8284,-3.824,-3.828,-3.8267,-3.8222,-3.8226,-3.8333,-3.8337,-3.8266,-3.8459,-3.8371,-3.8388,-3.8452,-3.8479,-3.85,-3.8495,-3.8163,0,0,0,0,0,-3.815,-3.821,-3.8205,-3.8314,-3.8326,-3.8304,-3.8335,-3.8306,-3.8326,-3.8335,-3.8335,-3.8357,-3.8409,-3.8445,-3.8492,-3.8624,-3.8624,-3.8686,-3.8708,-3.8725,-3.8739,-3.8807,-3.8834,-3.8546,-3.8546,-3.8546,0,0,-3.8234,-3.824,-3.8281,-3.8338,-3.8351,-3.8413,-3.8312,-3.8383,-3.8429,-3.8346,-3.8439,-3.844,-3.8462,-3.8578,-3.8629,-3.8584,-3.8819,-3.8741,-3.8755,-3.8759,-3.8822,-3.8849,-3.8873,-3.8555,-3.8553,-3.8552,0,0,-3.8419,-3.8431,-3.8521,-3.8537,-3.8558,-3.8542,-3.8564,-3.8573,-3.857,-3.8663,-3.8601,-3.8655,-3.8747,-3.8764,-3.8784,-3.8975,-3.8925,-3.8992,-3.9102,-3.9169,-3.9191,-3.9211,-3.9277,-3.9301,-3.9006,-3.9007,-3.9007,0,-3.852,-3.8612,-3.8573,-3.8648,-3.8674,-3.8602,-3.8692,-3.8709,-3.8745,-3.8764,-3.8715,-3.8826,-3.8836,-3.8953,-3.9,-3.902,-3.9042,-3.8989,-3.9191,-3.9211,-3.9229,-3.929,-3.9316,-3.9015,-3.9014,-3.9013,-3.9012,0,-3.8735,-3.88,-3.887,-3.8906,-3.894,-3.9023,-3.8995,-3.9035,-3.9003,-3.8992,-3.9087,-3.9096,-3.9143,-3.9169,-3.914,-3.9283,-3.9254,-3.9199,-3.9109,-3.9264,-3.9322,-3.9345,-3.9026,-3.9023,-3.9021,-3.9019,0,0,-3.8995,-3.9008,-3.9034,-3.9048,-3.9067,-3.9116,-3.9195,-3.924,-3.9274,-3.9302,-3.9365,-3.9444,-3.9392,-3.9416,-3.9387,-3.9446,-3.9593,-3.9383,-3.9383,-3.942,-3.9749,-3.9788,-3.9816,-3.9561,-3.9566,-3.9569,-3.9746,0,-3.9175,-3.931,-3.9276,-3.941,-3.9468,-3.94,-3.9468,-3.9486,-3.9479,-3.9527,-3.9518,-3.9573,-3.9503,-3.9516,-3.9571,-3.9564,-3.9658,-3.9551,-3.9618,-3.9621,-3.9612,-3.9846,-3.9889,-4.0055,-3.9768,-3.9772,-3.9775,0,-3.9403,-3.9438,-3.9577,-3.9584,-3.9607,-3.9669,-3.9707,-3.9755,-3.9774,-3.9764,-3.979,-3.975,-3.9826,-3.9738,-3.9842,-3.977,-3.9795,-3.9796,-3.9802,-3.9804,-3.9705,-3.9853,-4.0107,-4.0131,-3.981,-3.9807,-3.9805,0,-3.9575,-3.9658,-3.9751,-3.9766,-3.9777,-3.9822,-3.9829,-3.9843,-3.9872,-3.9906,-3.9923,-3.9967,-3.9989,-4.0023,-3.9995,-3.9934,-4.0103,-4.0012,-4.0095,-4.0096,-4.0131,-4.0129,-4.0391,-4.0153,-4.0153,-4.0152,-4.0152,0,-3.9778,-3.9865,-3.9828,-3.9885,-3.998,-3.9941,-4.0036,-4.0035,-4.0048,-4.0103,-4.0048,-4.01,-4.0061,-4.011,-4.0089,-4.0177,-4.0189,-4.0181,-4.0174,-4.0185,-4.0185,-4.0199,-4.0185,-4.0159,-4.0157,-4.0156,-4.0155,0,-3.9985,-3.9964,-4.006,-4.0063,-4.0066,-4.0135,-4.0137,-4.019,-4.0178,-4.0248,-4.0262,-4.0244,-4.0299,-4.0275,-4.0333,-4.0318,-4.043,-4.0409,-4.0424,-4.0417,-4.05,-4.0491,-4.0777,-4.0812,-4.0555,-4.0557,-4.056,0,-4.0114,-4.0179,-4.0189,-4.0222,-4.0232,-4.0286,-4.0315,-4.028,-4.0312,-4.0338,-4.0387,-4.0437,-4.0475,-4.0566,-4.0557,-4.0601,-4.0579,-4.0676,-4.0585,-4.0593,-4.0576,-4.0572,-4.0577,-4.0693,-4.0696,-4.0699,-4.0701,0,-4.0345,-4.0331,-4.0375,-4.0416,-4.0452,-4.0483,-4.0508,-4.0538,-4.0503,-4.0543,-4.0598,-4.0627,-4.0686,-4.0736,-4.0774,-4.078,-4.0735,-4.073,-4.0751,-4.0761,-4.0765,-4.0761,-4.047,-4.0723,-4.0721,-4.0719,-4.0718,-4.0717,-4.0515,-4.0569,-4.0584,-4.0634,-4.065,-4.0675,-4.0723,-4.0717,-4.0763,-4.0807,-4.0784,-4.0848,-4.0864,-4.091,-4.0923,-4.0972,-4.0933,-4.0964,-4.0971,-4.0979,-4.0988,-4.076,-4.0979,-4.0978,-4.0978,-4.0977,-4.0977,0,-4.0741,-4.0747,-4.0794,-4.0831,-4.087,-4.0825,-4.085,-4.0886,-4.0943,-4.0962,-4.1,-4.1063,-4.111,-4.1106,-4.115,-4.1189,-4.1169,-4.1202,-4.1197,-4.1199,-4.1022,-4.0998,-4.1217,-4.1217,-4.1217,-4.1217,-4.1217,-4.1217,-4.0863,-4.095,-4.0938,-4.1032,-4.1038,-4.1099,-4.1118,-4.114,-4.1154,-4.1227,-4.1266,-4.1263,-4.1272,-4.1316,-4.1357,-4.1354,-4.1372,-4.1412,-4.1401,-4.1235,-4.1211,-4.1189,-4.1166,-4.1416,-4.1417,-4.1573,-4.1575,-4.1576]},{"header":{"parameterUnit":"m.s-1","parameterCategory":1,"la1":30.2991,"la2":30.254,"lo1":-89.0895,"lo2":-89.0444,"dy":0.0017,"dx":0.0017,"nx":28,"ny":28,"refTime":"2024-04-21T21:00:00:Z","depth":0,"parameterNumber":3,"parameterNumberName":"V-component_of_WINDS"},"data":[0,0,0,0,0,0,0,0,0,0,0,0,0,0,0,0,0,0,0,0,0,0,0,0,0,0,0,0,0,0,0,0,0,0,0,0,0,0,0,0,0,0,0,0,0,0,0,0,0,0,0,0,0,0,0,0,0,0,0.6905,0.6905,0,0.6861,0.6861,0.686,0.6736,0.6733,0.673,0.6728,0.6687,0.6688,0.669,0,0,0,0,0,0,0,0,0,0,0,0,0,0.6887,0.6888,0.6905,0.6905,0.6904,0.6861,0.6861,0.686,0.6736,0.6733,0.673,0.6727,0.6686,0.6688,0.669,0,0,0,0,0,0,0,0,0,0,0,0,0,0.6874,0.6888,0.6905,0.6837,0.6831,0.6861,0.6861,0.686,0.6737,0.6733,0.6729,0.6725,0.6686,0.6688,0.669,0.6785,0,0,0.6697,0.6697,0,0,0,0,0,0,0,0,0.6875,0.6875,0.6848,0.6842,0.6835,0.68,0.6839,0.6835,0.6738,0.6773,0.6728,0.6723,0.6728,0.6726,0.6727,0.6783,0.6781,0.6697,0.6698,0.6699,0.67,0,0,0,0,0,0,0,0.6876,0.6876,0.6888,0.6848,0.684,0.681,0.6804,0.6838,0.6774,0.6769,0.676,0.6756,0.6724,0.6725,0.6725,0.678,0.6697,0.6699,0.67,0.6701,0.6912,0.6916,0,0,0,0,0,0,0.6886,0.6878,0.6889,0.6887,0.6845,0.6814,0.6807,0.6815,0.6773,0.6763,0.676,0.6751,0.6724,0.6723,0.6723,0.6831,0.6699,0.6701,0.6702,0.6908,0.6913,0.6918,0,0,0,0,0,0,0.6886,0.6888,0.6891,0.688,0.6878,0.6818,0.6829,0.6816,0.6818,0.6766,0.6754,0.6773,0.672,0.672,0.677,0.6828,0.6702,0.6704,0.6903,0.6909,0.6915,0.7049,0,0,0,0,0,0,0.6886,0.6889,0.6923,0.6881,0.6879,0.6938,0.6832,0.6818,0.6821,0.6809,0.6775,0.6766,0.6717,0.6768,0.6772,0.6829,0.6706,0.6897,0.6906,0.6913,0.7039,0.7059,0.7076,0,0,0,0,0,0.6886,0.6963,0.6926,0.6928,0.692,0.6941,0.694,0.6881,0.6827,0.6861,0.6828,0.6767,0.6821,0.6774,0.6778,0.6836,0.6893,0.6903,0.6913,0.703,0.7055,0.7076,0,0,0,0,0,0,0.7015,0.6957,0.6914,0.698,0.6966,0.692,0.6962,0.6909,0.6912,0.69,0.6829,0.6822,0.6882,0.6864,0.6812,0.6926,0.6847,0.6858,0.6935,0.6958,0.6977,0.698,0.6707,0,0,0,0,0,0.7051,0.7072,0.702,0.7083,0.7078,0.7022,0.7029,0.6985,0.6968,0.6962,0.6932,0.692,0.6934,0.6945,0.6955,0.7036,0.7027,0.7078,0.7097,0.7112,0.7123,0.7164,0.7187,0.695,0.6949,0.6949,0,0,0.7126,0.7096,0.7114,0.7108,0.7093,0.7117,0.7018,0.7047,0.7065,0.6967,0.7012,0.699,0.6972,0.7037,0.7065,0.7024,0.7186,0.7125,0.7137,0.7139,0.7177,0.7199,0.7219,0.6956,0.6955,0.6954,0,0,0.7274,0.7254,0.7304,0.7291,0.7268,0.7229,0.7242,0.7204,0.7185,0.7229,0.7156,0.7177,0.7203,0.7192,0.7191,0.7337,0.7281,0.7343,0.744,0.7482,0.75,0.7516,0.7569,0.7589,0.7353,0.7354,0.7354,0,0.7371,0.7402,0.7337,0.7372,0.7372,0.7283,0.7335,0.7325,0.7308,0.731,0.7265,0.7296,0.7277,0.7339,0.7375,0.7377,0.7389,0.7346,0.7503,0.7518,0.7532,0.7582,0.7602,0.7361,0.736,0.7359,0.7359,0,0.7522,0.7546,0.759,0.7573,0.7579,0.7622,0.7564,0.7578,0.7534,0.7501,0.7548,0.7522,0.7526,0.7538,0.7496,0.7595,0.757,0.7515,0.7434,0.7564,0.7609,0.7627,0.7372,0.7369,0.7367,0.7365,0,0,0.775,0.7697,0.7715,0.7706,0.7675,0.7693,0.7733,0.7735,0.7748,0.774,0.7772,0.7796,0.7745,0.7743,0.7699,0.7736,0.7854,0.7676,0.7674,0.771,0.7962,0.8004,0.8027,0.7817,0.782,0.7823,0.7964,0,0.789,0.7953,0.7896,0.7971,0.7992,0.7909,0.7944,0.7929,0.7901,0.7916,0.7884,0.7903,0.7833,0.7832,0.7864,0.7833,0.7904,0.7822,0.7847,0.7849,0.7854,0.805,0.8094,0.8228,0.7981,0.7984,0.7986,0,0.8061,0.8059,0.8136,0.81,0.8107,0.8139,0.8137,0.8152,0.8135,0.8112,0.811,0.8057,0.8095,0.8017,0.8069,0.8014,0.8022,0.8008,0.8012,0.8012,0.7925,0.8056,0.8269,0.829,0.8013,0.8011,0.8009,0,0.822,0.8237,0.8284,0.828,0.824,0.8264,0.8249,0.8227,0.8233,0.8232,0.8235,0.8239,0.8242,0.8247,0.8197,0.8144,0.8256,0.8173,0.8238,0.824,0.8265,0.8264,0.8483,0.827,0.827,0.827,0.8269,0,0.8382,0.8432,0.8355,0.8385,0.8439,0.8374,0.843,0.8406,0.8388,0.8413,0.8342,0.8367,0.8299,0.8317,0.8278,0.8328,0.833,0.8313,0.8302,0.8319,0.8321,0.8322,0.8312,0.8275,0.8274,0.8273,0.8272,0,0.8568,0.8518,0.8565,0.8523,0.8513,0.8555,0.852,0.8546,0.8513,0.8545,0.8549,0.8497,0.8515,0.8466,0.8477,0.845,0.8522,0.8496,0.8528,0.852,0.8587,0.8582,0.8815,0.8842,0.8613,0.8615,0.8617,0,0.8674,0.8711,0.8672,0.8683,0.8671,0.869,0.8694,0.8633,0.8641,0.8625,0.8654,0.8665,0.8671,0.8705,0.8669,0.8678,0.8651,0.8732,0.8652,0.8668,0.8653,0.8651,0.8654,0.8749,0.8752,0.8754,0.8756,0,0.8869,0.8842,0.8851,0.8852,0.886,0.8858,0.8851,0.8865,0.8799,0.8812,0.8829,0.8834,0.8845,0.8858,0.8859,0.8844,0.879,0.8782,0.8797,0.8815,0.8831,0.8823,0.8573,0.8776,0.8774,0.8773,0.8772,0.8771,0.9017,0.9046,0.9024,0.9036,0.9025,0.9021,0.9043,0.9013,0.9025,0.9028,0.8992,0.9017,0.9,0.8994,0.8986,0.9006,0.8969,0.8991,0.8997,0.9003,0.9015,0.8829,0.9006,0.9005,0.9004,0.9004,0.9003,0,0.9208,0.9189,0.9202,0.9194,0.9205,0.9152,0.9142,0.9155,0.9177,0.9165,0.9173,0.9193,0.9206,0.9172,0.918,0.9202,0.9178,0.9206,0.9204,0.9202,0.9047,0.9033,0.9226,0.9226,0.9226,0.9226,0.9226,0.9226,0.9308,0.9354,0.9325,0.9365,0.9347,0.9369,0.9368,0.9365,0.9355,0.938,0.939,0.9367,0.9347,0.9353,0.9363,0.9353,0.9359,0.9397,0.9378,0.9234,0.9213,0.9192,0.9178,0.9399,0.9399,0.9531,0.9532,0.9533]}]]